Temp
27 26 24 23 24 22 27 30 29 29 31 28 27 27 27 26 27 25 21 23 25 23 20 22 23 23 24 24 23 22 21 21 21 20 20 20 20 20 21 21 21 19 18 19 20 19 20 20 20
27 25 24 20 24 25 27 30 32 31 29 27 27 27 27 26 23 20 20 22 25 23 20 22 22 23 24 24 23 23 22 21 21 20 20 20 20 21 21 21 21 20 20 19 20 20 20 20 20
27 26 22 20 20 25 27 31 32 31 30 28 29 27 27 25 22 21 23 21 23 21 21 21 22 23 24 23 23 23 22 22 21 21 21 20 20 20 21 21 21 20 20 20 20 20 20 20 19
27 22 20 22 24 25 28 28 28 31 29 29 28 27 27 25 23 24 22 22 22 19 21 21 22 23 23 23 23 23 22 22 21 21 21 21 21 20 20 20 20 20 20 20 20 20 20 20 19
24 19 22 22 24 24 27 28 30 30 30 31 29 28 25 25 24 23 22 23 22 20 21 21 22 23 23 23 23 22 22 21 22 21 21 21 21 20 20 20 20 21 20 20 20 20 19 19 19
21 19 22 22 23 25 26 27 28 31 31 29 27 26 25 23 22 21 22 22 23 22 21 21 22 23 23 23 23 22 22 21 21 21 21 21 20 20 20 20 21 21 21 21 21 20 20 20 20
21 20 22 23 23 26 28 27 28 29 29 29 28 26 23 21 21 21 22 22 22 21 20 21 21 22 22 22 22 22 22 22 21 21 21 20 20 20 20 20 20 21 21 21 21 21 21 20 20
19 20 24 23 23 25 27 28 28 28 30 29 27 25 22 22 20 21 21 21 21 20 19 20 21 21 21 21 22 22 22 22 22 21 21 20 20 20 20 20 20 21 21 21 21 21 21 21 21
21 21 21 23 24 26 26 25 26 28 28 30 28 26 26 22 20 19 18 18 18 17 18 19 20 20 21 21 21 21 21 21 21 21 21 20 20 20 20 21 21 21 21 21 22 22 22 22 21
20 18 22 23 25 25 25 24 26 27 27 30 27 25 23 21 20 19 18 17 16 16 17 17 17 18 20 20 20 20 20 20 20 20 20 21 21 20 20 20 21 21 21 21 21 21 21 21 21
20 20 23 24 25 25 25 25 25 28 27 29 29 23 22 21 21 20 20 19 18 18 17 17 17 18 19 20 20 20 20 20 20 20 20 20 20 20 20 20 20 20 20 21 21 21 21 22 22
20 21 22 22 24 23 24 23 24 26 27 28 27 24 23 22 21 21 21 20 19 18 18 17 17 18 18 19 20 20 19 20 20 20 20 20 20 20 20 20 21 20 20 20 21 21 21 22 22
20 19 19 20 21 21 23 23 23 25 26 27 26 25 23 23 23 23 22 21 19 18 19 18 17 17 18 19 20 20 19 20 20 20 20 20 20 20 20 20 20 21 20 21 21 21 21 21 21
18 18 18 20 21 21 22 23 25 26 28 27 26 25 24 24 23 23 22 21 19 19 19 21 19 19 19 20 20 20 20 21 21 20 20 20 21 21 20 20 20 20 21 21 21 21 21 21 21
18 18 18 19 21 21 25 23 23 25 27 27 25 25 25 25 24 23 23 21 20 20 20 21 21 21 21 20 20 20 20 21 21 21 21 21 20 21 21 21 20 21 20 20 20 20 20 20 21
16 16 17 19 20 22 23 23 25 25 26 24 24 24 25 25 25 25 24 22 21 20 20 20 20 21 21 20 21 20 20 21 21 21 21 21 21 21 20 20 21 21 20 20 20 20 20 20 20
13 13 15 16 17 18 18 19 20 22 22 22 23 22 24 25 25 26 25 23 22 21 21 20 20 20 20 20 20 20 20 20 21 21 21 21 21 21 20 20 20 20 20 20 20 20 20 20 20
13 13 14 14 15 17 17 18 20 21 21 22 21 22 22 24 25 27 26 25 23 22 21 20 20 20 19 19 19 19 19 20 20 21 21 21 21 21 20 20 20 20 20 20 20 20 20 20 20
14 13 13 15 17 17 17 17 19 20 20 20 21 20 21 23 24 27 27 26 24 22 21 21 20 19 20 19 18 18 18 18 19 20 21 22 21 21 21 20 20 20 20 20 20 20 20 20 19
14 13 13 15 17 17 16 17 19 20 20 21 22 23 21 21 24 25 27 27 25 23 22 21 21 20 19 20 19 19 19 19 19 20 21 22 22 22 22 21 20 20 20 20 20 20 19 19 19
14 13 14 14 16 16 15 17 18 20 20 20 21 21 21 22 22 24 25 27 26 25 23 22 21 21 20 20 20 20 19 19 18 19 21 21 21 22 22 22 21 20 20 19 20 20 19 19 19
12 14 15 15 14 13 16 14 17 19 20 21 20 21 20 21 22 24 23 26 27 26 25 23 22 21 20 20 20 20 19 20 20 20 19 20 22 22 22 22 21 21 21 20 20 20 20 19 19
14 15 14 14 14 13 15 13 16 17 19 19 20 21 20 21 21 23 21 24 26 27 26 24 23 22 21 20 21 20 20 21 21 21 20 20 21 22 22 22 22 22 21 21 21 20 20 19 19
15 15 14 14 13 13 15 15 15 17 19 20 22 21 20 20 21 22 23 23 24 25 27 26 24 22 21 20 21 20 21 21 21 20 20 19 20 20 21 22 22 21 21 21 21 21 20 20 19
13 13 11 12 12 14 16 15 17 17 19 18 18 18 18 19 19 19 20 20 20 21 26 27 25 23 22 21 21 21 21 21 21 21 20 20 19 19 20 21 21 21 22 21 20 20 20 20 19
12 13 9 10 12 12 14 15 15 17 17 18 18 18 19 18 19 19 19 19 19 19 22 26 25 24 23 21 21 21 21 21 21 21 21 20 20 20 20 20 20 21 20 20 20 20 20 19 19
13 12 14 12 12 12 13 14 17 16 16 17 17 18 17 18 18 18 18 19 19 19 18 20 24 24 23 22 21 21 21 21 21 21 21 20 20 20 21 21 20 20 21 21 20 19 19 19 19
13 14 12 12 11 12 14 13 13 14 15 16 16 16 17 17 18 19 18 18 18 19 18 18 21 22 23 22 21 21 21 21 21 22 22 20 21 21 21 21 22 22 21 20 19 19 19 18 18
11 11 11 12 11 12 13 12 16 15 15 15 15 16 15 16 17 17 17 17 17 17 18 17 17 19 21 21 22 21 21 21 20 20 20 21 22 22 22 22 22 22 21 20 19 19 18 18 18
12 10 10 10 11 11 12 13 15 15 15 16 15 16 17 16 15 15 15 15 15 15 15 16 16 16 18 19 20 20 20 20 21 21 21 22 19 20 21 22 21 21 21 21 20 19 18 18 17
Height
769 765 764 767 791 796 791 772 758 759 756 746 747 756 760 758 763 784 759 761 766 774 780 784 787 791 792 796 799 802 805 807 810 812 814 816 818 820 820 822 824 826 827 829 831 832 834 835 836
768 765 765 776 800 809 794 762 758 750 749 747 749 752 754 764 756 760 763 764 767 773 780 784 788 791 794 797 800 803 805 808 812 814 816 817 819 820 821 823 825 827 829 831 833 834 836 837 839
767 765 774 794 812 807 795 758 752 744 744 750 753 751 753 754 756 758 759 764 769 773 779 784 789 791 794 798 800 803 806 808 812 814 816 819 820 822 823 825 827 829 831 833 834 836 838 840 841
766 768 780 803 802 786 775 765 757 752 748 745 751 761 751 748 747 753 758 764 770 775 779 784 789 792 795 798 801 803 807 810 812 815 817 819 822 824 826 827 829 831 833 834 836 838 840 842 844
767 778 801 809 799 784 768 760 755 755 749 747 750 762 761 755 753 753 759 764 769 775 781 785 789 793 796 798 801 804 807 811 813 816 818 820 822 825 827 829 831 833 835 837 839 841 843 845 846
780 786 809 815 802 781 771 761 756 751 743 747 756 760 760 755 755 757 761 767 771 774 780 786 790 794 796 799 802 804 807 811 814 817 819 821 823 826 828 830 832 834 836 838 841 843 845 847 848
785 797 805 802 800 786 768 758 760 758 752 754 749 766 762 759 758 759 763 768 773 777 781 786 790 794 797 799 802 805 807 810 814 817 820 823 825 827 829 831 833 835 837 839 841 844 845 847 848
784 792 796 796 799 789 766 760 758 759 753 739 744 765 769 752 757 759 766 771 775 779 782 785 789 793 797 800 802 805 808 811 813 816 819 823 825 828 829 831 833 835 837 839 841 843 845 847 849
778 801 807 794 787 776 765 773 757 747 751 743 743 745 746 754 758 758 765 772 776 779 782 786 789 792 796 799 802 805 808 811 814 816 819 821 824 827 829 831 833 835 837 839 841 843 845 847 848
790 807 795 778 770 774 766 774 768 762 758 749 748 746 745 757 757 757 758 763 770 774 778 783 788 790 794 798 801 804 807 810 813 815 817 820 823 826 829 831 833 835 837 839 841 843 845 846 848
789 797 783 774 768 769 770 762 768 766 765 755 750 752 748 758 757 757 756 750 751 765 773 778 783 788 791 795 799 802 805 808 811 813 816 819 822 825 828 830 832 834 837 838 840 842 843 845 846
796 783 782 780 772 774 776 766 764 763 755 744 741 741 745 754 752 751 753 754 756 761 767 773 778 783 787 791 795 799 802 805 808 811 814 817 820 822 825 828 830 832 834 837 839 840 842 844 845
792 790 785 782 780 776 770 772 770 756 751 738 740 744 748 753 754 755 757 760 761 759 762 768 773 777 782 787 791 795 798 802 805 809 812 815 818 820 823 825 828 830 833 835 837 839 841 842 843
797 791 786 780 778 776 774 766 762 747 744 744 743 744 746 748 752 757 756 756 757 759 758 763 769 773 777 782 786 790 794 798 803 806 810 813 816 818 821 824 826 828 830 833 835 837 839 840 841
796 798 789 781 777 775 761 765 761 749 745 748 746 742 743 744 750 749 751 752 752 753 757 757 763 769 773 777 782 787 791 795 799 803 807 810 813 816 819 821 823 825 828 831 833 835 836 837 838
803 804 808 789 781 773 772 764 756 748 751 752 749 744 740 740 740 743 747 751 754 757 756 759 762 764 768 773 778 783 787 791 795 798 803 806 810 813 816 818 820 823 826 829 830 832 833 834 835
820 826 819 811 799 797 798 783 764 755 759 758 752 745 739 735 733 735 737 741 746 750 752 753 756 759 764 769 774 779 782 787 790 794 797 801 804 808 812 814 816 820 823 825 827 828 830 830 831
832 828 825 828 813 802 799 778 772 765 760 757 756 750 743 735 730 727 729 732 737 742 748 753 754 754 761 768 772 776 779 782 785 788 791 796 799 802 806 810 812 816 819 820 822 824 826 827 828
827 828 828 820 807 805 801 786 773 766 757 756 753 754 748 738 727 723 725 727 730 734 741 743 749 751 754 760 764 768 768 774 778 781 786 789 793 797 800 803 807 810 811 813 816 820 821 822 825
825 827 823 809 802 801 799 779 773 765 757 751 746 741 744 740 729 721 720 721 723 725 727 734 737 745 745 748 752 760 764 768 772 776 779 781 786 790 793 796 798 802 805 807 810 813 816 817 820
823 824 819 816 804 801 796 776 771 759 751 746 738 733 734 734 729 719 713 712 713 715 717 721 724 730 737 739 747 756 764 767 769 769 769 772 777 782 786 789 792 795 799 800 803 806 809 812 815
826 814 811 809 811 820 800 792 774 765 754 745 741 733 728 723 717 710 711 707 703 702 704 707 711 718 722 733 740 740 742 746 745 751 758 763 768 773 777 781 785 788 791 794 795 799 802 807 808
818 807 809 808 811 812 800 810 781 766 759 752 742 731 724 717 712 711 708 702 699 697 696 699 703 706 713 721 726 730 732 732 737 745 749 753 757 762 767 772 775 778 781 784 788 791 794 798 802
807 808 806 804 808 809 797 801 787 774 759 748 735 736 730 720 711 703 698 692 688 686 686 688 693 694 702 708 714 721 723 727 732 737 740 743 747 751 757 761 766 770 773 775 779 783 786 788 792
814 815 826 820 816 807 787 789 778 766 756 755 750 742 734 724 717 708 701 691 686 683 676 678 683 687 694 699 702 707 711 719 720 722 727 733 738 743 744 748 753 758 761 766 770 774 777 779 782
821 818 847 843 822 814 793 788 786 774 764 756 752 746 735 729 720 714 707 698 692 685 676 673 675 679 686 691 695 696 703 707 718 725 727 728 729 730 735 741 746 750 754 758 762 765 768 770 772
820 825 816 826 824 821 803 787 765 771 769 760 759 751 743 736 727 721 713 704 699 691 683 679 673 674 683 685 693 698 701 706 707 715 724 729 734 730 731 735 740 745 748 751 754 756 758 760 763
822 819 827 825 826 817 801 803 807 786 776 768 769 762 753 742 733 726 720 714 708 702 695 685 684 683 684 688 693 699 704 707 710 701 719 717 725 730 728 729 733 736 738 741 745 748 750 753 754
832 835 829 825 831 820 811 814 795 790 783 777 778 767 760 750 745 739 730 725 720 712 705 700 696 692 691 690 692 694 698 703 707 711 715 715 713 724 722 719 722 727 731 735 737 738 741 742 744
830 839 840 839 836 832 819 811 793 792 787 780 779 777 765 760 754 749 743 734 732 725 720 715 710 704 698 695 693 695 699 704 706 708 710 699 704 709 716 713 714 719 723 725 727 730 730 731 733
Wind_Speed
23 15 2 2 4 5 3 5 2 5 2 3 8 5 8 1 3 4 9 23 32 38 31 32 32 30 28 27 25 25 27 28 26 25 23 24 23 23 22 21 21 20 20 20 21 22 23 24 25
22 4 3 2 4 3 4 3 2 0 5 8 7 3 5 1 3 7 14 20 37 36 32 34 33 31 29 27 26 26 26 26 24 23 22 23 22 22 21 21 20 21 21 21 22 23 24 25 25
12 3 3 4 3 4 4 3 7 5 4 2 3 4 2 9 3 13 11 31 39 34 33 35 35 32 30 28 27 25 25 25 23 22 21 21 21 20 20 20 20 21 21 22 23 24 25 25 25
5 5 4 4 4 5 3 7 5 1 5 3 3 3 4 5 22 18 28 38 37 31 34 37 35 33 31 29 27 26 24 24 23 22 21 20 18 18 19 19 19 20 21 21 23 25 25 24 22
4 3 3 2 5 5 4 8 3 6 3 4 3 2 3 4 13 27 38 41 38 32 35 37 36 33 31 30 28 26 25 23 23 21 21 20 19 18 18 18 18 19 20 20 21 22 21 20 18
4 3 2 3 5 5 7 6 9 7 6 5 6 4 5 8 25 33 40 39 36 37 36 37 35 33 32 30 28 27 25 23 22 21 20 19 18 18 18 17 17 18 20 20 19 19 18 17 15
5 4 3 3 3 3 4 8 8 7 5 4 7 2 2 5 19 38 38 37 35 34 36 37 35 33 31 31 29 27 26 25 23 22 20 18 18 18 18 17 16 18 18 19 18 18 17 15 14
4 3 1 3 2 4 3 5 4 6 6 4 7 5 6 8 28 34 35 34 34 32 32 38 36 34 32 30 29 27 26 25 24 23 22 19 18 17 17 17 16 17 17 18 17 17 16 14 13
2 3 3 4 4 3 3 7 8 8 7 2 6 5 5 27 29 33 32 28 28 25 26 34 36 35 33 32 30 28 26 25 24 23 23 21 20 19 18 18 17 17 17 17 16 16 15 14 13
4 3 7 5 2 1 12 5 6 8 9 3 3 6 27 29 29 27 29 28 27 27 27 28 28 32 35 33 31 30 28 27 26 25 25 23 22 21 20 18 17 17 17 16 15 14 13 13 13
2 5 3 5 6 2 7 15 7 2 7 6 6 8 19 22 25 24 28 38 44 40 31 30 29 29 35 36 34 32 31 29 28 26 26 24 23 22 21 20 20 19 18 18 17 15 15 14 13
5 4 4 6 9 9 5 13 15 8 10 7 9 18 20 20 19 25 28 30 35 39 39 33 31 31 37 39 38 36 34 33 31 29 28 27 26 25 24 24 23 22 22 22 20 18 16 15 14
2 5 10 9 10 10 7 7 8 19 11 13 7 13 17 15 14 19 21 22 27 35 41 38 35 36 40 41 40 38 37 36 34 32 30 29 29 28 27 26 25 25 24 24 23 21 19 18 17
5 9 10 6 11 6 9 7 3 5 2 7 8 12 16 16 17 14 20 23 30 33 42 45 41 41 44 45 43 42 40 38 35 33 33 31 30 29 29 28 27 27 26 25 25 24 23 21 19
6 7 11 8 4 5 6 11 11 6 6 8 11 11 15 17 17 21 24 26 32 35 38 48 47 44 45 46 44 43 41 39 37 36 34 33 32 31 30 29 29 29 27 25 25 25 25 25 24
6 2 5 7 15 7 4 18 4 6 5 10 11 9 15 15 18 27 26 27 27 29 35 41 44 47 47 47 45 44 42 41 40 38 37 35 34 33 32 31 31 29 28 27 27 27 28 29 28
7 4 4 9 12 15 12 16 14 20 11 8 10 10 12 15 19 28 32 33 34 37 37 42 45 47 49 47 45 44 43 42 42 41 40 39 37 36 35 34 33 31 30 30 30 30 30 31 32
8 9 5 8 7 20 21 28 18 18 19 17 9 11 10 12 19 31 35 35 37 40 37 37 43 45 45 39 39 40 41 42 43 43 43 41 40 39 38 37 36 33 32 32 32 33 31 32 31
5 6 9 11 12 13 17 23 22 16 17 15 8 7 11 13 14 28 30 35 35 37 37 42 39 41 45 40 37 36 39 40 42 44 43 43 42 42 41 41 40 36 36 37 36 34 34 33 31
4 7 8 8 11 13 12 24 20 21 21 18 18 15 9 9 14 15 26 31 34 36 43 40 44 40 48 43 42 36 34 35 40 42 43 45 44 43 43 44 44 43 41 37 38 36 32 34 31
3 5 5 12 12 7 10 21 13 15 15 11 13 13 8 9 11 16 15 27 34 37 41 44 48 47 46 46 37 30 28 25 30 39 46 46 44 44 44 44 44 44 43 41 42 41 39 27 26
4 7 9 8 7 3 5 10 15 15 19 17 10 13 12 10 7 6 11 16 31 41 45 47 49 49 51 45 38 41 40 36 43 43 40 43 46 46 45 44 44 44 43 44 43 42 42 35 26
7 7 9 11 8 5 4 7 6 8 15 10 10 11 10 11 9 10 10 21 28 36 43 43 45 48 48 46 44 44 42 42 38 34 36 43 46 48 48 47 47 47 46 46 45 40 41 39 33
10 5 6 7 4 8 6 8 6 3 7 6 12 13 14 13 16 16 17 17 22 31 42 45 44 47 47 47 49 45 45 39 31 34 34 37 41 46 49 49 49 48 47 47 47 44 42 43 40
7 4 4 5 2 9 6 8 6 10 10 10 8 11 13 14 14 16 14 14 20 25 33 42 42 42 43 45 49 48 48 42 39 38 38 35 34 34 47 51 49 50 51 49 45 43 44 45 40
7 2 3 4 4 6 8 5 4 8 14 18 16 14 18 19 18 20 19 16 22 25 24 35 37 39 39 41 45 49 48 41 35 30 30 33 36 40 38 44 45 47 47 47 45 43 45 43 42
6 3 2 2 3 4 4 7 7 19 20 22 21 19 19 20 21 20 20 26 32 34 29 13 24 30 32 37 35 38 38 37 36 29 31 28 30 32 36 36 39 43 44 46 45 43 43 43 42
4 4 1 2 3 3 4 4 11 19 18 20 19 18 16 17 20 21 21 30 36 37 36 37 15 4 18 24 28 27 28 29 29 29 39 37 33 32 32 32 35 38 40 42 42 39 41 38 41
5 4 4 2 0 3 4 3 10 11 7 10 14 11 8 14 15 18 19 32 36 39 42 41 37 28 6 13 22 26 28 28 26 23 24 26 22 33 37 36 36 38 38 38 38 40 38 38 38
1 3 4 3 5 3 3 3 10 12 11 12 14 15 15 14 15 16 20 30 33 36 39 40 40 38 36 20 9 13 15 18 21 21 21 26 43 39 32 31 32 36 37 39 41 40 38 39 36
Wind_Direction
339 335 62 89 49 50 300 1 214 339 102 213 132 169 178 65 163 208 146 157 166 164 168 167 164 157 151 144 139 137 136 135 134 131 131 133 135 134 132 127 125 123 124 122 120 120 120 119 118
340 11 68 74 84 74 288 266 14 144 107 106 115 117 142 140 105 112 129 162 163 163 167 167 165 159 154 149 145 143 143 142 140 136 133 134 133 134 133 131 130 129 129 125 124 125 125 124 121
337 12 77 83 106 166 219 287 12 119 170 6 48 23 246 151 94 150 162 161 162 160 167 167 166 161 158 154 150 148 148 148 147 143 138 137 135 136 135 135 135 134 132 132 132 131 130 130 127
331 14 34 85 258 254 230 335 15 314 306 172 105 56 349 261 152 171 160 162 162 160 167 167 167 164 161 159 156 152 152 152 153 151 145 141 139 139 138 138 138 139 136 137 138 137 137 137 134
47 56 47 82 257 275 325 307 36 250 249 139 87 232 43 25 149 154 160 164 164 162 167 168 168 167 165 163 161 157 156 157 157 157 153 148 146 145 144 143 143 144 141 141 140 141 142 141 140
42 95 72 230 241 297 297 299 329 234 242 118 105 129 170 162 147 156 161 166 167 164 167 169 171 170 169 167 166 163 161 161 161 162 160 155 152 152 152 150 148 148 147 147 148 149 150 149 149
109 91 220 217 236 294 245 328 22 339 55 343 145 109 314 173 162 157 163 166 168 166 167 171 173 174 173 171 170 169 167 166 166 167 168 165 162 161 160 159 157 155 153 153 156 159 162 163 162
104 91 252 250 183 261 272 6 334 331 347 122 136 180 238 186 157 157 164 167 169 168 171 174 176 177 177 176 175 175 174 172 171 173 173 174 172 171 170 167 165 163 162 162 162 166 171 173 175
110 74 230 256 199 256 119 29 318 303 339 268 187 165 181 155 154 147 153 160 165 168 173 180 179 180 182 181 180 179 180 179 178 178 180 179 180 179 179 177 173 173 172 172 172 174 178 181 188
97 148 218 230 263 335 302 100 315 335 332 308 21 38 130 154 160 160 164 165 172 174 178 180 183 184 185 185 184 185 184 185 185 185 184 187 186 185 186 184 184 182 182 183 182 184 188 193 199
154 215 249 291 302 106 309 317 151 193 301 265 293 170 153 168 176 178 180 178 177 179 176 182 183 185 187 188 187 189 189 190 191 192 191 190 190 190 191 190 190 192 192 192 194 198 202 205 211
345 284 310 299 343 339 329 307 317 181 245 264 260 175 166 181 190 188 188 183 176 179 183 182 183 185 189 190 191 192 193 194 195 196 196 195 194 195 196 197 197 198 200 202 204 205 208 215 224
230 335 322 312 300 297 292 270 275 281 283 284 141 158 183 201 201 199 194 190 183 182 187 188 185 187 190 193 194 195 197 198 199 198 199 201 201 200 200 202 203 205 206 210 213 217 220 227 232
313 300 298 311 307 248 271 273 210 273 294 258 178 188 193 200 207 201 193 193 196 191 191 194 193 193 192 196 198 198 201 202 203 203 204 205 207 207 207 207 209 212 213 215 219 224 229 233 237
301 316 331 320 325 291 231 270 234 281 223 245 217 201 202 206 198 209 213 206 199 200 193 196 198 198 198 199 202 203 205 205 206 208 208 210 211 212 213 214 215 217 218 223 226 230 235 239 241
349 65 354 327 343 328 305 276 292 278 211 245 257 237 208 204 207 211 212 214 211 203 201 199 199 201 202 203 204 206 209 210 210 211 212 213 215 217 217 219 221 222 223 226 230 233 237 241 244
14 323 351 331 336 353 23 301 330 334 341 286 265 245 223 216 219 215 210 207 208 207 203 202 201 204 204 206 208 209 212 214 215 216 216 216 217 220 221 223 226 226 228 230 233 237 239 243 245
310 316 302 301 312 314 309 296 301 305 303 299 281 266 262 233 227 221 213 206 205 207 207 207 205 203 204 205 208 211 215 218 220 221 221 221 221 221 223 227 229 229 232 235 237 240 242 245 250
275 291 295 303 286 281 280 280 295 301 296 297 288 263 262 270 247 234 224 212 205 201 201 207 204 205 199 199 200 205 208 212 218 223 226 226 226 225 225 227 230 229 232 235 238 240 242 246 246
295 305 305 278 326 305 282 279 285 287 287 279 283 280 250 242 265 261 231 218 207 201 203 203 207 204 204 201 206 207 206 213 218 222 227 229 229 229 228 228 230 231 232 235 238 238 239 244 244
273 248 274 286 304 301 279 278 279 279 277 279 273 273 263 250 241 246 241 223 211 207 203 203 206 205 206 206 200 204 204 213 214 222 227 228 229 229 229 231 231 233 233 233 237 239 236 237 242
288 227 259 279 315 324 349 291 306 297 291 293 285 285 287 294 330 271 261 242 220 214 209 208 206 204 206 202 199 195 195 202 212 215 217 222 227 229 230 231 232 235 237 236 236 240 239 234 236
254 277 267 279 287 293 279 282 329 345 312 306 297 297 297 300 306 309 241 238 249 231 217 213 210 205 205 198 201 200 204 210 212 209 211 216 225 228 229 231 233 235 236 239 238 236 239 237 236
289 314 276 254 218 267 248 239 290 291 256 269 291 329 333 334 334 322 307 298 275 247 224 217 211 208 203 199 199 202 208 211 204 204 205 211 215 223 228 231 232 235 236 239 241 241 243 242 239
7 13 342 339 338 276 266 239 271 304 330 16 25 357 346 358 355 356 338 342 333 291 226 218 212 211 206 202 200 204 209 210 207 203 204 205 206 212 222 228 228 230 236 238 241 240 242 244 237
305 73 132 303 301 297 297 266 42 9 14 16 0 3 8 359 359 0 355 354 355 336 276 217 210 211 206 205 208 205 210 208 213 215 213 211 208 213 220 225 227 234 236 239 239 239 244 243 241
315 22 264 212 240 271 268 303 328 2 14 13 5 2 5 7 11 2 360 8 10 9 359 319 220 210 209 209 212 213 211 209 206 217 220 224 227 221 220 229 233 235 240 243 241 237 238 240 240
70 303 322 0 315 315 299 43 5 355 8 5 360 359 5 22 15 18 21 21 18 17 16 22 18 244 217 215 217 218 218 219 231 212 224 219 221 228 230 231 239 243 243 243 239 235 239 237 240
350 20 351 314 275 304 296 88 9 349 359 18 335 334 6 14 14 10 17 15 16 14 15 19 18 27 332 229 221 216 213 216 219 219 210 214 237 240 238 238 240 244 246 246 241 238 236 235 236
168 56 41 6 331 283 268 258 40 21 1 357 359 360 5 20 12 21 17 21 14 16 15 12 12 14 22 19 253 232 229 218 212 223 243 256 249 231 237 238 241 245 247 250 247 241 236 233 232